KD8OZS Weather Reports


time (UTC)temp
F
wind
direction
speed
knots
gust
knots
rain 1hr
in
rain 24hr
in
rain mn
in
humidity
%
barometer
mb
20260508115312 50 220 0.9 1.7 0.00 0.00 0.00 73 1005.4
20260508114809 49 236 2.6 2.6 0.00 0.00 0.00 74 1005.4
20260508114306 49 238 0.0 0.9 0.00 0.00 0.00 76 1005.4
20260508113802 48 233 0.0 0.0 0.00 0.00 0.00 80 1005.3
20260508113301 46 236 0.0 0.0 0.00 0.00 0.00 84 1005.3
20260508112756 44 238 0.9 0.9 0.00 0.00 0.00 90 1005.3
20260508112254 42 244 0.0 0.0 0.00 0.00 0.00 93 1005.2
20260508111749 42 242 0.0 0.0 0.00 0.00 0.00 93 1005.2
20260508111248 41 236 0.0 0.0 0.00 0.00 0.00 93 1005.4
20260508110745 41 231 0.0 0.0 0.00 0.00 0.00 93 1005.4
20260508110242 41 228 0.9 0.9 0.00 0.00 0.00 93 1005.1
20260508105742 41 231 0.0 0.0 0.00 0.00 0.00 93 1005.3
20260508105239 41 230 0.0 0.0 0.00 0.00 0.00 93 1005.2
20260508104736 41 231 0.0 0.0 0.00 0.00 0.00 93 1005.2
20260508104233 41 231 0.0 0.0 0.00 0.00 0.00 92 1005.1
20260508103730 41 238 0.0 0.0 0.00 0.00 0.00 92 1004.9
20260508103227 41 235 0.0 0.0 0.00 0.00 0.00 92 1004.8
20260508102724 41 235 0.0 0.0 0.00 0.00 0.00 92 1005.0
20260508102222 42 235 0.0 0.0 0.00 0.00 0.00 92 1004.8
20260508101719 42 234 0.9 0.9 0.00 0.00 0.00 91 1005.0
20260508101217 42 235 0.0 0.0 0.00 0.00 0.00 91 1004.9
20260508100714 42 235 0.0 0.0 0.00 0.00 0.00 90 1004.9
20260508100212 42 235 0.0 0.0 0.00 0.00 0.00 91 1004.9
20260508095708 42 235 0.0 0.0 0.00 0.00 0.00 91 1005.1
20260508095206 43 228 0.9 0.9 0.00 0.00 0.00 91 1005.1
20260508094702 43 228 0.9 0.9 0.00 0.00 0.00 91 1005.1
20260508094159 43 230 0.0 0.9 0.00 0.00 0.00 91 1005.1
20260508093656 43 239 0.0 0.0 0.00 0.00 0.00 90 1005.2
20260508093154 43 240 0.0 0.0 0.00 0.00 0.00 91 1005.3
20260508092651 43 243 0.0 0.0 0.00 0.00 0.00 90 1005.4
20260508092149 43 232 0.0 0.0 0.00 0.00 0.00 90 1005.4
20260508091646 43 232 0.0 0.0 0.00 0.00 0.00 90 1005.2
20260508091143 44 232 0.0 0.0 0.00 0.00 0.00 90 1005.2
20260508090641 44 232 0.0 0.0 0.00 0.00 0.00 89 1005.4
20260508090138 44 232 0.0 0.0 0.00 0.00 0.00 88 1005.6
20260508085634 44 233 0.0 0.0 0.00 0.00 0.00 88 1005.6
20260508085132 44 232 0.0 0.0 0.00 0.00 0.00 88 1005.6
20260508084628 44 232 0.0 0.0 0.00 0.00 0.00 87 1005.6
20260508084125 45 232 0.0 0.0 0.00 0.00 0.00 86 1005.4
20260508083622 46 232 0.0 0.0 0.00 0.00 0.00 86 1005.4
20260508083120 46 231 0.0 0.0 0.00 0.00 0.00 84 1005.2
20260508082615 47 240 0.0 0.0 0.00 0.00 0.00 81 1005.5
20260508082112 47 266 0.0 0.9 0.00 0.00 0.00 82 1005.1
20260508081610 47 233 0.0 0.0 0.00 0.00 0.00 82 1005.4
20260508081106 48 233 0.0 0.0 0.00 0.00 0.00 81 1005.2
20260508080604 48 236 0.0 0.0 0.00 0.00 0.00 80 1005.3
20260508080101 48 223 0.9 0.9 0.00 0.00 0.00 80 1005.2
20260508075557 47 226 1.7 1.7 0.00 0.00 0.00 79 1005.0
20260508075055 47 225 2.6 2.6 0.00 0.00 0.00 82 1005.2
20260508074552 47 230 0.9 0.9 0.00 0.00 0.00 82 1005.5
20260508074049 47 250 0.0 0.9 0.00 0.00 0.00 81 1005.6
20260508073546 47 229 0.9 1.7 0.00 0.00 0.00 80 1005.6
20260508073044 47 240 0.9 0.9 0.00 0.00 0.00 79 1005.5
20260508072539 47 229 0.0 0.0 0.00 0.00 0.00 80 1005.6
20260508072037 46 231 0.0 0.0 0.00 0.00 0.00 81 1005.8
20260508071535 46 228 0.0 0.0 0.00 0.00 0.00 81 1005.7
20260508071032 46 231 0.0 0.0 0.00 0.00 0.00 81 1005.9
20260508070530 46 234 0.0 0.0 0.00 0.00 0.00 81 1005.7
20260508070028 46 234 0.0 0.0 0.00 0.00 0.00 80 1006.0
20260508065525 46 232 0.0 0.0 0.00 0.00 0.00 81 1005.9
20260508065024 46 232 0.0 0.0 0.00 0.00 0.00 79 1005.7
20260508064521 46 222 1.7 1.7 0.00 0.00 0.00 81 1006.0
20260508064018 45 233 0.9 0.9 0.00 0.00 0.00 85 1005.9
20260508063515 45 239 0.0 0.0 0.00 0.00 0.00 86 1006.0
20260508063013 46 232 0.0 0.0 0.00 0.00 0.00 86 1006.0
20260508062511 46 232 0.0 0.0 0.00 0.00 0.00 85 1006.2
20260508062007 46 233 0.0 0.0 0.00 0.00 0.00 84 1006.1
20260508061506 46 232 0.0 0.0 0.00 0.00 0.00 83 1006.2
20260508061001 45 241 0.0 0.0 0.00 0.00 0.00 85 1006.2
20260508060459 45 233 0.0 0.0 0.00 0.00 0.00 86 1006.4
20260508055955 45 224 0.9 1.7 0.00 0.00 0.00 87 1006.4
20260508055452 45 232 0.0 0.9 0.00 0.00 0.00 87 1006.1
20260508054948 44 231 0.0 0.0 0.00 0.00 0.00 87 1006.1
20260508054445 44 231 0.0 0.0 0.00 0.00 0.00 86 1006.0
20260508053942 44 231 0.0 0.0 0.00 0.00 0.00 86 1005.9
20260508053439 44 231 0.0 0.0 0.00 0.00 0.00 87 1005.9
20260508052937 44 231 0.0 0.0 0.00 0.00 0.00 87 1005.9
20260508052434 44 231 0.0 0.0 0.00 0.00 0.00 87 1005.8
20260508051930 44 231 0.0 0.0 0.00 0.00 0.00 87 1006.0
20260508051426 44 231 0.0 0.0 0.00 0.00 0.00 86 1006.0
20260508050922 44 231 0.0 0.0 0.00 0.00 0.00 86 1006.0
20260508050419 44 231 0.0 0.0 0.00 0.00 0.00 86 1006.1
20260508045915 44 231 0.0 0.0 0.00 0.00 0.00 86 1006.2
20260508045413 44 231 0.0 0.0 0.00 0.00 0.00 86 1006.0
20260508044911 44 231 0.0 0.0 0.00 0.00 0.00 85 1006.0
20260508044408 44 231 0.0 0.0 0.00 0.00 0.00 84 1006.0
20260508043903 45 231 0.0 0.0 0.00 0.00 0.00 83 1005.9
20260508043401 45 231 0.0 0.0 0.00 0.00 0.00 82 1005.9
20260508042856 44 231 0.0 0.0 0.00 0.00 0.00 82 1006.0
20260508042354 45 231 0.0 0.0 0.00 0.00 0.00 84 1006.1
20260508041851 45 231 0.0 0.0 0.00 0.00 0.00 84 1006.2
20260508041347 45 231 0.0 0.0 0.00 0.00 0.00 83 1005.9
20260508040844 45 231 0.0 0.0 0.00 0.00 0.00 83 1006.0
20260508040341 46 231 0.0 0.0 0.00 0.00 0.00 82 1005.9
20260508035839 46 231 0.0 0.0 0.00 0.00 0.00 81 1006.2
20260508035336 46 232 0.0 0.0 0.00 0.00 0.00 81 1006.1
20260508034833 46 231 0.0 0.0 0.00 0.00 0.00 81 1006.3
20260508034330 46 231 0.0 0.0 0.00 0.00 0.00 82 1006.2
20260508033827 46 231 0.0 0.0 0.00 0.00 0.00 81 1006.2
20260508033325 46 231 0.0 0.0 0.00 0.00 0.00 81 1006.3
20260508032822 46 231 0.0 0.0 0.00 0.00 0.00 80 1006.2
20260508032320 47 231 0.0 0.0 0.00 0.00 0.00 78 1006.0
20260508031816 47 231 0.0 0.0 0.00 0.00 0.00 75 1006.4
20260508031313 46 231 0.0 0.0 0.00 0.00 0.00 74 1006.2
20260508030809 46 231 0.0 0.0 0.00 0.00 0.00 76 1006.4
20260508030307 47 231 0.0 0.0 0.00 0.00 0.00 78 1006.4
20260508025803 47 231 0.0 0.0 0.00 0.00 0.00 74 1006.3
20260508025300 47 231 0.0 0.0 0.00 0.00 0.00 73 1006.2
20260508024756 47 231 0.0 0.0 0.00 0.00 0.00 73 1006.3
20260508024253 48 231 0.0 0.0 0.00 0.00 0.00 74 1006.5
20260508023750 48 231 0.0 0.0 0.00 0.00 0.00 72 1006.3
20260508023247 49 231 0.0 0.0 0.00 0.00 0.00 68 1006.5
20260508022743 49 229 0.9 0.9 0.00 0.00 0.00 67 1006.3
20260508022240 48 225 0.9 0.9 0.00 0.00 0.00 66 1006.1
20260508021737 46 228 0.9 0.9 0.00 0.00 0.00 79 1006.3
20260508021232 46 233 0.0 0.0 0.00 0.00 0.00 82 1006.1
20260508020729 46 233 0.0 0.0 0.00 0.00 0.00 81 1006.0
20260508020227 46 234 0.0 0.0 0.00 0.00 0.00 82 1006.2
20260508015724 45 232 0.0 0.9 0.00 0.00 0.00 81 1006.2
20260508015221 45 235 0.0 0.0 0.00 0.00 0.00 83 1006.0
20260508014718 44 242 0.0 0.9 0.00 0.00 0.00 82 1006.2
20260508014214 44 231 0.0 0.0 0.00 0.00 0.00 81 1006.2
20260508013710 44 231 0.0 0.0 0.00 0.00 0.00 81 1006.0
20260508013207 44 231 0.0 0.0 0.00 0.00 0.00 81 1005.9
20260508012705 44 231 0.0 0.0 0.00 0.00 0.00 80 1006.0
20260508012201 45 231 0.0 0.0 0.00 0.00 0.00 79 1005.9
20260508011659 45 231 0.0 0.0 0.00 0.00 0.00 78 1005.9
20260508011157 45 231 0.0 0.0 0.00 0.00 0.00 78 1005.9
20260508010653 45 231 0.0 0.0 0.00 0.00 0.00 77 1005.8
20260508010151 46 231 0.0 0.0 0.00 0.00 0.00 76 1005.7
20260508005648 46 231 0.0 0.0 0.00 0.00 0.00 74 1005.8
20260508005144 47 231 0.0 0.0 0.00 0.00 0.00 73 1005.8
20260508004640 48 231 0.0 0.0 0.00 0.00 0.00 68 1005.8
20260508004137 48 231 0.0 0.0 0.00 0.00 0.00 69 1005.6
20260508003633 48 231 0.0 0.0 0.00 0.00 0.00 66 1005.9
20260508003131 48 231 0.0 0.0 0.00 0.00 0.00 65 1005.7
20260508002627 49 231 0.0 0.0 0.00 0.00 0.00 66 1006.0
20260508002125 50 231 0.0 0.0 0.00 0.00 0.00 62 1005.8
20260508001620 51 231 0.0 0.0 0.00 0.00 0.00 59 1005.8
20260508001116 52 230 0.9 0.9 0.00 0.00 0.00 54 1005.6
20260508000612 52 231 0.0 0.9 0.00 0.00 0.00 56 1005.7
20260508000110 53 232 0.9 0.9 0.00 0.00 0.00 52 1005.3
20260507235607 53 239 0.0 0.9 0.00 0.00 0.00 51 1005.4
20260507235104 53 225 1.7 1.7 0.00 0.00 0.00 48 1005.2
20260507234600 54 239 0.9 0.9 0.00 0.00 0.00 50 1005.5
20260507234057 54 216 1.7 1.7 0.00 0.00 0.00 48 1005.4
20260507233554 55 238 1.7 1.7 0.00 0.00 0.00 45 1005.3
20260507233053 55 225 0.9 1.7 0.00 0.00 0.00 46 1005.4
20260507232548 55 236 0.9 0.9 0.00 0.00 0.00 46 1005.3
20260507232046 55 215 1.7 1.7 0.00 0.00 0.00 44 1005.1
20260507231542 55 258 0.9 0.9 0.00 0.00 0.00 43 1005.0
20260507231040 55 235 0.9 0.9 0.00 0.00 0.00 44 1005.3
20260507230536 55 236 2.6 2.6 0.00 0.00 0.00 47 1005.1
20260507230033 55 220 0.9 1.7 0.00 0.00 0.00 48 1005.2
20260507225527 54 242 1.7 2.6 0.00 0.00 0.00 48 1005.2
20260507225024 54 234 0.9 0.9 0.00 0.00 0.00 49 1005.2
20260507224520 55 242 1.7 2.6 0.00 0.00 0.00 44 1005.1
20260507224017 55 243 0.9 0.9 0.00 0.00 0.00 46 1005.2
20260507223513 56 222 2.6 2.6 0.00 0.00 0.00 43 1005.2
20260507223010 56 235 1.7 2.6 0.00 0.00 0.00 47 1005.2
20260507222507 56 285 1.7 2.6 0.00 0.00 0.00 44 1005.3
20260507222003 56 238 1.7 1.7 0.00 0.00 0.00 46 1005.2
20260507221500 56 231 2.6 4.3 0.00 0.00 0.00 43 1005.2
20260507220956 56 245 2.6 2.6 0.00 0.00 0.00 43 1005.2
20260507220454 57 261 2.6 4.3 0.00 0.00 0.00 42 1005.1
20260507215951 56 230 0.9 0.9 0.00 0.00 0.00 48 1005.1
20260507215447 57 254 2.6 5.2 0.00 0.00 0.00 44 1005.0
20260507214945 58 237 2.6 2.6 0.00 0.00 0.00 43 1005.0
20260507214442 57 240 0.9 1.7 0.00 0.00 0.00 44 1005.0
20260507213938 57 235 3.5 5.2 0.00 0.00 0.00 42 1005.0
20260507213434 57 247 1.7 1.7 0.00 0.00 0.00 45 1005.1
20260507212931 59 244 1.7 1.7 0.00 0.00 0.00 44 1005.1
20260507212427 58 240 2.6 4.3 0.00 0.00 0.00 43 1005.2
20260507211924 58 260 2.6 2.6 0.00 0.00 0.00 43 1004.8
20260507211421 58 245 1.7 1.7 0.00 0.00 0.00 43 1004.8
20260507210917 57 246 0.9 0.9 0.00 0.00 0.00 45 1004.8
20260507210415 58 240 1.7 1.7 0.00 0.00 0.00 46 1005.0
20260507205911 58 237 5.2 6.1 0.00 0.00 0.00 45 1004.8
20260507205409 58 227 2.6 2.6 0.00 0.00 0.00 46 1004.8
20260507204904 58 241 1.7 1.7 0.00 0.00 0.00 46 1004.8
20260507204401 58 245 1.7 1.7 0.00 0.00 0.00 46 1004.7
20260507203859 57 248 0.9 1.7 0.00 0.00 0.00 49 1004.7
20260507203357 59 228 1.7 1.7 0.00 0.00 0.00 46 1005.0
20260507202853 57 247 2.6 2.6 0.00 0.00 0.00 51 1004.9
20260507202349 58 286 4.3 6.1 0.00 0.00 0.00 46 1004.7
20260507201845 58 245 2.6 4.3 0.00 0.00 0.00 46 1004.6
20260507201340 58 254 2.6 2.6 0.00 0.00 0.00 46 1004.6
20260507200837 58 232 5.2 6.1 0.00 0.00 0.00 44 1004.8
20260507200333 55 260 2.6 2.6 0.00 0.00 0.00 48 1005.0
20260507195829 55 203 2.6 4.3 0.00 0.00 0.00 51 1005.1
20260507195327 55 220 1.7 2.6 0.00 0.00 0.00 52 1005.1
20260507194824 57 256 1.7 2.6 0.00 0.00 0.00 51 1005.2
20260507194320 56 243 1.7 1.7 0.00 0.00 0.00 50 1005.0
20260507193817 57 242 0.9 0.9 0.00 0.00 0.00 50 1005.1
20260507193314 55 244 1.7 2.6 0.00 0.00 0.00 51 1005.1
20260507192809 57 238 0.9 1.7 0.00 0.00 0.00 50 1004.9
20260507192307 59 245 2.6 2.6 0.00 0.00 0.00 46 1005.2
20260507191803 60 221 0.9 1.7 0.00 0.00 0.00 53 1005.2
20260507191259 59 252 2.6 4.3 0.00 0.00 0.00 48 1005.2
20260507190756 59 242 3.5 7.0 0.00 0.00 0.00 48 1005.3
20260507190255 59 237 0.9 1.7 0.00 0.00 0.00 52 1005.1
20260507185753 57 269 1.7 1.7 0.00 0.00 0.00 52 1005.0
20260507185249 57 218 1.7 2.6 0.00 0.00 0.00 51 1005.1
20260507184747 56 233 2.6 2.6 0.00 0.00 0.00 51 1005.4
20260507184245 58 238 0.0 0.9 0.00 0.00 0.00 53 1005.1
20260507183741 56 249 1.7 2.6 0.00 0.00 0.00 51 1005.1
20260507183238 58 227 2.6 4.3 0.00 0.00 0.00 48 1005.0
20260507182736 58 242 1.7 1.7 0.00 0.00 0.00 50 1005.3
20260507182230 57 242 0.9 1.7 0.00 0.00 0.00 51 1005.2
20260507181728 58 212 2.6 6.1 0.00 0.00 0.00 49 1005.1
20260507181224 56 258 2.6 2.6 0.00 0.00 0.00 49 1005.3
20260507180720 58 230 2.6 2.6 0.00 0.00 0.00 49 1005.0
20260507180217 57 256 1.7 1.7 0.00 0.00 0.00 49 1005.1
20260507175713 57 231 2.6 2.6 0.00 0.00 0.00 48 1005.3
20260507175210 58 269 2.6 2.6 0.00 0.00 0.00 48 1005.3
20260507174708 57 239 0.9 0.9 0.00 0.00 0.00 51 1005.6
20260507174205 57 234 2.6 2.6 0.00 0.00 0.00 49 1005.2
20260507173703 56 244 1.7 1.7 0.00 0.00 0.00 51 1005.4
20260507173159 57 210 1.7 1.7 0.00 0.00 0.00 53 1005.4
20260507172656 57 229 1.7 1.7 0.00 0.00 0.00 52 1005.6
20260507172153 58 238 2.6 2.6 0.00 0.00 0.00 49 1005.6
20260507171653 59 238 2.6 4.3 0.00 0.00 0.00 49 1005.5
20260507171150 58 228 2.6 2.6 0.00 0.00 0.00 51 1005.3
20260507170647 56 213 2.6 4.3 0.00 0.00 0.00 49 1005.5
20260507170144 56 240 2.6 2.6 0.00 0.00 0.00 49 1005.5
20260507165640 55 214 2.6 4.3 0.00 0.00 0.00 49 1005.5
20260507165136 55 214 1.7 2.6 0.00 0.00 0.00 50 1005.5
20260507164632 57 233 4.3 4.3 0.00 0.00 0.00 47 1005.6
20260507164130 56 229 0.9 1.7 0.00 0.00 0.00 52 1005.5
20260507163627 56 217 3.5 4.3 0.00 0.00 0.00 49 1005.6
20260507163125 57 240 2.6 2.6 0.00 0.00 0.00 50 1005.7
20260507162620 57 231 0.9 0.9 0.00 0.00 0.00 47 1005.4
20260507162117 56 238 0.9 1.7 0.00 0.00 0.00 53 1005.6
20260507161613 55 304 1.7 2.6 0.00 0.00 0.00 50 1005.5
20260507161110 55 249 2.6 5.2 0.00 0.00 0.00 48 1005.6
20260507160606 56 244 0.9 1.7 0.00 0.00 0.00 51 1005.6
20260507155557 56 241 0.0 0.0 0.00 0.00 0.00 50 1005.5
20260507155055 57 243 0.9 0.9 0.00 0.00 0.00 47 1005.6
20260507154552 55 314 4.3 6.1 0.00 0.00 0.00 47 1005.7
20260507154049 56 246 1.7 1.7 0.00 0.00 0.00 49 1005.7
20260507153545 55 242 0.9 0.9 0.00 0.00 0.00 51 1005.7
20260507153042 54 231 2.6 2.6 0.00 0.00 0.00 53 1005.5
20260507152538 56 245 0.9 0.9 0.00 0.00 0.00 49 1005.7
20260507152034 55 239 1.7 1.7 0.00 0.00 0.00 47 1005.6
20260507151530 55 252 2.6 2.6 0.00 0.00 0.00 52 1005.7
20260507151028 55 251 1.7 1.7 0.00 0.00 0.00 50 1005.5
20260507150525 55 241 0.9 1.7 0.00 0.00 0.00 50 1005.5
20260507150022 54 204 3.5 5.2 0.00 0.00 0.00 50 1005.5
20260507145516 54 240 1.7 2.6 0.00 0.00 0.00 51 1005.6
20260507145015 54 249 2.6 4.3 0.00 0.00 0.00 51 1005.8
20260507144511 53 207 2.6 4.3 0.00 0.00 0.00 48 1005.7
20260507144009 54 222 1.7 2.6 0.00 0.00 0.00 52 1005.6
20260507143505 54 231 0.9 0.9 0.00 0.00 0.00 51 1005.7
20260507143003 53 245 2.6 2.6 0.00 0.00 0.00 55 1005.9
20260507142458 53 198 2.6 2.6 0.00 0.00 0.00 54 1005.7
20260507141955 55 220 0.9 1.7 0.00 0.00 0.00 54 1005.9
20260507141451 54 204 3.5 5.2 0.00 0.00 0.00 54 1005.8
20260507140948 52 232 0.9 0.9 0.00 0.00 0.00 60 1005.8
20260507140444 54 212 2.6 4.3 0.00 0.00 0.00 57 1005.9
20260507135942 55 243 0.9 0.9 0.00 0.00 0.00 60 1006.1
20260507135439 53 224 1.7 1.7 0.00 0.00 0.00 61 1005.9
20260507134936 53 219 0.9 1.7 0.00 0.00 0.00 61 1006.1
20260507134432 52 240 0.9 0.9 0.00 0.00 0.00 65 1006.0
20260507133929 50 221 0.9 0.9 0.00 0.00 0.00 69 1006.0
20260507133425 51 233 0.0 0.9 0.00 0.00 0.00 68 1006.1
20260507132924 52 240 0.9 0.9 0.00 0.00 0.00 65 1006.2
20260507132419 52 231 0.0 0.0 0.00 0.00 0.00 67 1006.1
20260507131916 52 235 1.7 1.7 0.00 0.00 0.00 67 1006.1
20260507131413 51 227 0.9 1.7 0.00 0.00 0.00 69 1006.3
20260507130910 51 237 0.9 0.9 0.00 0.00 0.00 70 1006.1
20260507130407 50 231 0.9 0.9 0.00 0.00 0.00 72 1006.1
20260507125906 51 226 0.9 0.9 0.00 0.00 0.00 71 1006.1
20260507125403 49 225 0.9 0.9 0.00 0.00 0.00 72 1006.1
20260507124900 49 230 0.0 0.0 0.00 0.00 0.00 75 1006.1
20260507124356 48 227 1.7 1.7 0.00 0.00 0.00 75 1006.0
20260507123855 47 239 0.0 0.0 0.00 0.00 0.00 78 1006.1
20260507123352 46 222 0.9 1.7 0.00 0.00 0.00 78 1006.1
20260507122848 47 228 0.0 0.0 0.00 0.00 0.00 80 1006.1
20260507122343 46 238 0.0 0.0 0.00 0.00 0.00 83 1006.3
20260507121840 44 224 0.9 0.9 0.00 0.00 0.00 86 1006.1
20260507121335 43 229 0.0 0.9 0.00 0.00 0.00 91 1006.1
20260507120832 42 231 2.6 2.6 0.00 0.00 0.00 95 1006.0
20260507120329 42 237 0.9 0.9 0.00 0.00 0.00 97 1005.9
20260507115825 42 232 0.0 0.0 0.00 0.00 0.00 98 1006.0